Time,TemperatureF,DewpointF,PressureIn,WindDirection,WindDirectionDegrees,WindSpeedMPH,WindSpeedGustMPH,Humidity,HourlyPrecipIn,Conditions,Clouds,dailyrainin,SoftwareType,DateUTC
2014-02-02 04:12:00,40.0,25.0,-100.00,South,172,2.0,3.0,54,0.00,,,0.00,,2014-02-02 09:12:00,
2014-02-02 05:11:00,35.0,25.0,-100.00,SW,234,1.0,2.0,66,0.00,,,0.00,,2014-02-02 10:11:00,
2014-02-02 05:52:00,35.0,25.0,-100.00,SW,234,1.0,2.0,66,0.00,,,0.00,,2014-02-02 10:52:00,
2014-02-02 06:02:00,35.0,25.0,-100.00,SW,234,1.0,2.0,66,0.00,,,0.00,,2014-02-02 11:02:00,
2014-02-02 06:22:00,37.0,26.0,-100.00,NNW,332,1.0,1.0,62,0.00,,,0.00,,2014-02-02 11:22:00,
2014-02-02 06:30:00,34.0,25.0,-100.00,NNW,332,1.0,2.0,71,0.00,,,0.00,,2014-02-02 11:30:00,
2014-02-02 06:33:00,37.0,26.0,-100.00,NNW,332,1.0,1.0,62,0.00,,,0.00,,2014-02-02 11:33:00,
2014-02-02 06:43:00,37.0,26.0,-100.00,NNW,332,1.0,1.0,62,0.00,,,0.00,,2014-02-02 11:43:00,
2014-02-02 06:53:00,36.0,26.0,-100.00,North,8,1.0,2.0,67,0.00,,,0.00,,2014-02-02 11:53:00,
2014-02-02 07:12:00,34.0,25.0,-100.00,NNW,332,1.0,2.0,71,0.00,,,0.00,,2014-02-02 12:12:00,
2014-02-02 07:22:00,34.0,25.0,-100.00,NNW,332,1.0,2.0,71,0.00,,,0.00,,2014-02-02 12:22:00,
2014-02-02 07:52:00,35.0,26.0,-100.00,SE,130,3.0,3.0,68,0.00,,,0.00,,2014-02-02 12:52:00,
2014-02-02 08:12:00,33.0,26.0,-100.00,NNW,330,0.0,0.0,75,0.00,,,0.00,,2014-02-02 13:12:00,
2014-02-02 08:22:00,35.0,26.0,-100.00,NNW,340,0.0,0.0,71,0.00,,,0.00,,2014-02-02 13:22:00,
2014-02-02 08:32:00,35.0,26.0,-100.00,NNW,340,0.0,0.0,71,0.00,,,0.00,,2014-02-02 13:32:00,
2014-02-02 08:42:00,35.0,26.0,-100.00,NNW,340,0.0,0.0,71,0.00,,,0.00,,2014-02-02 13:42:00,
2014-02-02 08:52:00,36.0,26.0,-100.00,West,271,0.0,0.0,65,0.00,,,0.00,,2014-02-02 13:52:00,
2014-02-02 09:11:00,37.0,28.0,-100.00,North,359,0.0,0.0,68,0.00,,,0.00,,2014-02-02 14:11:00,
2014-02-02 09:22:00,38.0,29.0,-100.00,NE,34,2.0,2.0,68,0.00,,,0.00,,2014-02-02 14:22:00,
2014-02-02 09:32:00,38.0,29.0,-100.00,NE,34,2.0,2.0,68,0.00,,,0.00,,2014-02-02 14:32:00,
2014-02-02 09:52:00,44.0,30.0,-100.00,NNW,336,0.0,1.0,58,0.00,,,0.00,,2014-02-02 14:52:00,
2014-02-02 12:11:00,60.0,39.0,-100.00,WNW,294,4.0,6.0,47,0.00,,,0.00,,2014-02-02 17:11:00,
2014-02-02 12:22:00,60.0,40.0,-100.00,SSW,212,4.0,6.0,47,0.00,,,0.00,,2014-02-02 17:22:00,
2014-02-02 12:52:00,60.0,39.0,-100.00,WNW,294,4.0,6.0,47,0.00,,,0.00,,2014-02-02 17:52:00,
2014-02-02 13:02:00,60.0,39.0,-100.00,WNW,294,4.0,6.0,47,0.00,,,0.00,,2014-02-02 18:02:00,
2014-02-02 13:52:00,56.0,37.0,-100.00,NE,42,3.0,6.0,49,0.00,,,0.00,,2014-02-02 18:52:00,
2014-02-02 14:11:00,60.0,40.0,-100.00,SE,126,3.0,5.0,47,0.00,,,0.00,,2014-02-02 19:11:00,
2014-02-02 14:12:00,57.0,36.0,-100.00,East,92,2.0,2.0,47,0.00,,,0.00,,2014-02-02 19:12:00,
2014-02-02 14:22:00,57.0,36.0,-100.00,East,92,2.0,2.0,47,0.00,,,0.00,,2014-02-02 19:22:00,
2014-02-02 14:52:00,60.0,40.0,-100.00,SE,126,3.0,5.0,47,0.00,,,0.00,,2014-02-02 19:52:00,
2014-02-02 15:02:00,60.0,40.0,-100.00,SE,126,3.0,5.0,47,0.00,,,0.00,,2014-02-02 20:02:00,
2014-02-02 17:23:00,63.0,48.0,-100.00,SSW,202,6.0,8.0,58,0.00,,,0.00,,2014-02-02 22:23:00,
2014-02-02 17:33:00,63.0,48.0,-100.00,SSW,202,6.0,8.0,58,0.00,,,0.00,,2014-02-02 22:33:00,
2014-02-02 17:53:00,62.0,48.0,-100.00,SSW,198,3.0,5.0,61,0.00,,,0.00,,2014-02-02 22:53:00,
2014-02-02 18:12:00,61.0,48.0,-100.00,SW,229,4.0,7.0,63,0.00,,,0.00,,2014-02-02 23:12:00,
2014-02-02 18:22:00,61.0,48.0,-100.00,SW,229,4.0,7.0,63,0.00,,,0.00,,2014-02-02 23:22:00,
2014-02-02 18:32:00,57.0,48.0,-100.00,NW,325,2.0,2.0,71,0.00,,,0.00,,2014-02-02 23:32:00,
2014-02-02 18:53:00,60.0,49.0,-100.00,SE,130,4.0,4.0,67,0.00,,,0.00,,2014-02-02 23:53:00,
2014-02-02 19:11:00,58.0,48.0,-100.00,WNW,295,2.0,3.0,70,0.00,,,0.00,,2014-02-03 00:11:00,
2014-02-02 19:12:00,57.0,48.0,-100.00,NW,325,2.0,2.0,71,0.00,,,0.00,,2014-02-03 00:12:00,
2014-02-02 19:22:00,57.0,48.0,-100.00,NW,325,2.0,2.0,71,0.00,,,0.00,,2014-02-03 00:22:00,
2014-02-02 19:52:00,58.0,48.0,-100.00,WNW,295,2.0,3.0,70,0.00,,,0.00,,2014-02-03 00:52:00,
2014-02-02 20:02:00,58.0,48.0,-100.00,WNW,295,2.0,3.0,70,0.00,,,0.00,,2014-02-03 01:02:00,
2014-02-02 20:22:00,57.0,48.0,-100.00,South,182,2.0,3.0,73,0.00,,,0.00,,2014-02-03 01:22:00,
2014-02-02 20:32:00,57.0,48.0,-100.00,South,182,2.0,3.0,73,0.00,,,0.00,,2014-02-03 01:32:00,
2014-02-02 20:42:00,57.0,48.0,-100.00,South,182,2.0,3.0,73,0.00,,,0.00,,2014-02-03 01:42:00,
2014-02-02 21:12:00,56.0,48.0,-100.00,South,174,6.0,6.0,75,0.00,,,0.00,,2014-02-03 02:12:00,
2014-02-02 21:22:00,56.0,49.0,-100.00,SSE,160,2.0,3.0,76,0.00,,,0.00,,2014-02-03 02:22:00,
2014-02-02 21:32:00,56.0,49.0,-100.00,SSE,160,2.0,3.0,76,0.00,,,0.00,,2014-02-03 02:32:00,
2014-02-02 21:52:00,57.0,49.0,-100.00,ESE,121,2.0,3.0,75,0.00,,,0.00,,2014-02-03 02:52:00,
2014-02-02 22:12:00,56.0,49.0,-100.00,SSE,161,4.0,4.0,78,0.00,,,0.00,,2014-02-03 03:12:00,
2014-02-02 22:22:00,55.0,49.0,-100.00,SSW,210,2.0,4.0,79,0.00,,,0.00,,2014-02-03 03:22:00,
2014-02-02 22:33:00,55.0,49.0,-100.00,SSW,210,2.0,4.0,79,0.00,,,0.00,,2014-02-03 03:33:00,
2014-02-02 22:53:00,55.0,49.0,-100.00,South,188,4.0,6.0,79,0.00,,,0.00,,2014-02-03 03:53:00,
2014-02-02 23:13:00,55.0,49.0,-100.00,SW,220,2.0,3.0,80,0.00,,,0.00,,2014-02-03 04:13:00,
2014-02-02 23:23:00,55.0,49.0,-100.00,South,181,5.0,6.0,81,0.00,,,0.00,,2014-02-03 04:23:00,
2014-02-02 23:33:00,55.0,49.0,-100.00,South,181,5.0,6.0,81,0.00,,,0.00,,2014-02-03 04:33:00,
2014-02-02 23:53:00,54.0,49.0,-100.00,South,169,2.0,3.0,82,0.00,,,0.00,,2014-02-03 04:53:00,